Torna al catalogo

STARLINK-31281

AttivoComunicazioniVLEO
NORAD 59077·PAYLOAD·🇺🇸 United States

Lanciato Feb 29, 2024 da Cape Canaveral Space Force Station

Loading…

Prossimi Passaggi (prossime 24 ore)

TLE

AggiornatoSource: CelesTrak SupGP

Epoca: Sep 15, 2026, 01:57 UTC

1 59077C 24041D   26258.08173611  .00039038  00000+0  14138-2 0  2588
2 59077  43.0033 320.8113 0001558 264.5302 331.3039 15.27562399    14

Traccia STARLINK-31281 in tempo reale con AllMySat

Download on the App Store